Location: Unspecified
(48.5539°N, 71.6350°W)
Time: 20:12:17
(UTC-05:00)

ISS - Pass Details

Date: 01 February 2019
Orbit: 403 x 411 km, 51.6° (Epoch: 17 February)

Event Time Altitude Azimuth Distance (km) Brightness Sun altitude
Rises 17:30:45 0° 274° (W) 2,333 1.6 -7.9°
Reaches altitude 10° 17:32:52 10° 280° (W) 1,474 0.2 -8.3°
Maximum altitude 17:36:05 47° 356° (N) 550 -3.3 -8.8°
Enters shadow 17:38:51 13° 70° (ENE) 1,297 -1.9 -9.2°
Drops below altitude 10° 17:39:19 10° 72° (ENE) 1,480 - -9.3°
Sets 17:41:27 0° 79° (ENE) 2,343 - -9.6°
